DECAYED

STARLINK-1727, 46335 (Decayed)

Orbit data source: Space-Track

STARLINK-1727, 46335 was a payload satellite owned by SpaceX/Seattle (US) in LEO that was launched on Thu, 03 Sep 2020 UTC via an FALCON 9 launch vehicle from the Air Force Eastern Test Range (AFETR). Payload-class satellites include a variety of spacecraft equipped with specific instruments for various scientific and technological missions. These include communications satellites like Starlink; space stations such as the ISS; scientific satellites like the Hubble; Earth observation satellites from companies like Planet Labs, Umbra, and HawkEye 360; GPS; miniature CubeSats for education and research; and military/defense satellites.

Not visible in the next 10 days
Identifier
46335, 2020-062L
Orbit
Decayed
Country
Flag of USUS
Related business
Manufacturer
SpaceX/Seattle
Mission
Decayed Commercial Communications
Bus & Motor
STARLINK, Unknown motor
Mass
260 kg wet, ~248 kg dry
Launch date (UTC)
2020-09-03 (6 years ago)
Launch vehicle
FALCON 9
Launch site
Air Force Eastern Test Range (AFETR)
Object type
Payload
Rocket body
Debris
Shape & HBR
Box + 1 Pan, 10.1 m
Radar Cross Section
13.562 m², Large (>1 m²)

Expand to show TLE details & history
Last TLE update: 2 weeks ago

TLE from 2 weeks ago
0 STARLINK-1727
1 46335U 20062L   26149.63102818  .07991487  12384-4  72448-3 0  9997
2 46335  53.0163 286.5342 0012331 296.0215  63.9560 16.37874951317726
Epoch: 2026-05-29T15:08Z
TLE epoch observation values (Epoch: 2026-05-29T15:08:40.834Z)
Latitude
-0.00004°
Longitude
172.20539°
Altitude
168.849 km
Speed
7.808 km/s
True Right ascension
19h 06m 08s
True Declination
0° 00' 00"
Sunlit
Object was in full shadow at epoch
Visualization orbit readout
Latitude
Unknown
Longitude
Unknown
Altitude
Unknown
Speed
Unknown
Apparent Right ascension
Unknown
Apparent Declination
Unknown
Sunlit
N/A
Visualization observer readout
Local Sidereal Time
12:20:10
Azimuth
Unknown
Elevation
Unknown
Doppler factor
Unknown
Orbital elements
Apogee altitude
179.83 km
Perigee altitude
163.677 km
Semi-major axis
6,549.891 km
Eccentricity
0.00123
Inclination
53.0163°
RAAN
286.5342°
Arg. of periapsis
296.0215°
True anomaly
64.08304°
Mean anomaly
63.956°
Eccentric anomaly
64.01951°
Mean motion
4.09442 °/min
Orbital period
87.92 mins
BSTAR
0.00072448
Loading maneuver chart data...
Computing Atmospheric mass density...

Documentation

Showing up to 5 results
|